Voltar ao catálogo

DELTA 1 DEB

AtivoLEO
NORAD 2976·DEBRIS·🇺🇸 United States

Lançado Apr 20, 1967 de Vandenberg Space Force Base

Loading…

Próximas Passagens (próximas 24 horas)

TLE

AtualizadoSource: Space-Track

Época: Sep 14, 2026, 09:39 UTC

1 02976U 67036C   26257.40259382 -.00000040  00000-0  49909-4 0  9991
2 02976 102.1889  61.6255 0098310 301.0374  87.3303 12.82109804779146

Acompanhe DELTA 1 DEB em tempo real com AllMySat

Download on the App Store